STARLINK-36104, 66964

Orbit data source: Space-Track

STARLINK-36104, 66964 is a payload satellite owned by SpaceX/Seattle (US) in LEO that was launched on Mon, 08 Dec 2025 UTC via an FALCON 9 launch vehicle from the Air Force Eastern Test Range (AFETR). Payload-class satellites include a variety of spacecraft equipped with specific instruments for various scientific and technological missions. These include communications satellites like Starlink; space stations such as the ISS; scientific satellites like the Hubble; Earth observation satellites from companies like Planet Labs, Umbra, and HawkEye 360; GPS; miniature CubeSats for education and research; and military/defense satellites.

Loading next visibility...
Identifier
66964, 2025-288F
Orbit
LEO
Country
Flag of USUS
Related business
Manufacturer
SpaceX/Seattle
Mission
Operational Commercial Communications
Bus & Motor
STARLINK V2MO, Unknown motor
Mass
575 kg wet, ~530 kg dry
Launch date (UTC)
2025-12-08 (5 months ago)
Launch vehicle
FALCON 9
Launch site
Air Force Eastern Test Range (AFETR)
Object type
Payload
Rocket body
Debris
Shape & HBR
Box + 2 Pan, 17.7 m
Radar Cross Section
36.964 m²

Expand to show TLE details & history
Last TLE update: 10 hours ago

TLE from 10 hours ago
0 STARLINK-36104
1 66964U 25288F   26130.08665066  .00003403  00000-0  13317-3 0  9993
2 66964  43.0015  37.0341 0001479 278.0361  82.0323 15.27567766 24671
Epoch: 2026-05-10T02:04Z
TLE epoch observation values (Epoch: 2026-05-10T02:04:46.617Z)
Latitude
0.00002°
Longitude
137.9451°
Altitude
482.721 km
Speed
7.626 km/s
True Right ascension
02h 28m 08s
True Declination
0° 00' 00"
Sunlit
Object was in daylight at epoch
Visualization orbit readout
Latitude
Unknown
Longitude
Unknown
Altitude
Unknown
Speed
Unknown
Apparent Right ascension
Unknown
Apparent Declination
Unknown
Sunlit
N/A
Visualization observer readout
Local Sidereal Time
20:36:01
Azimuth
Unknown
Elevation
Unknown
Doppler factor
Unknown
Orbital elements
Apogee altitude
486.046 km
Perigee altitude
484.016 km
Semi-major axis
6,863.168 km
Eccentricity
0.00015
Inclination
43.0015°
RAAN
37.0341°
Arg. of periapsis
278.0361°
True anomaly
82.04908°
Mean anomaly
82.0323°
Eccentric anomaly
82.04069°
Mean motion
3.8173 °/min
Orbital period
94.31 mins
BSTAR
0.00013317
Loading maneuver chart data...
Computing Atmospheric mass density...
Loading historical data...
Loading historical data...
Loading historical data...
Loading historical data...
Loading historical data...
Loading historical data...
Loading historical data...

Documentation

Showing up to 5 results
|